DECAYED

STARLINK-4063, 53132 (Decayed)

Orbit data source: Space-Track

STARLINK-4063, 53132 was a payload satellite owned by SpaceX/Seattle (US) in LEO that was launched on Sun, 17 Jul 2022 UTC via an FALCON 9 launch vehicle from the Air Force Eastern Test Range (AFETR). Payload-class satellites include a variety of spacecraft equipped with specific instruments for various scientific and technological missions. These include communications satellites like Starlink; space stations such as the ISS; scientific satellites like the Hubble; Earth observation satellites from companies like Planet Labs, Umbra, and HawkEye 360; GPS; miniature CubeSats for education and research; and military/defense satellites.

Not visible in the next 10 days
Identifier
53132, 2022-083A
Orbit
Decayed
Country
Flag of USUS
Related business
Manufacturer
SpaceX/Seattle
Mission
Decayed Commercial Communications
Bus & Motor
STARLINK, Unknown motor
Mass
297 kg wet, ~275 kg dry
Launch date (UTC)
2022-07-17 (4 years ago)
Launch vehicle
FALCON 9
Launch site
Air Force Eastern Test Range (AFETR)
Object type
Payload
Rocket body
Debris
Shape & HBR
Box + 1 Pan, 10.1 m
Radar Cross Section
13.562 m², Large (>1 m²)

Expand to show TLE details & history
Last TLE update: 6 months ago

TLE from 6 months ago
0 STARLINK-4063
1 53132U 22083A   25364.74953576  .10555708  12494-4  35118-3 0  9991
2 53132  53.2016  89.4782 0003387 288.0090 213.0284 16.44649515191296
Epoch: 2025-12-30T17:59Z
TLE epoch observation values (Epoch: 2025-12-30T17:59:19.889Z)
Latitude
30.34716°
Longitude
-125.59555°
Altitude
157.081 km
Speed
7.815 km/s
True Right ascension
16h 14m 39s
True Declination
30° 11' 01"
Sunlit
Object was in daylight at epoch
Visualization orbit readout
Latitude
Unknown
Longitude
Unknown
Altitude
Unknown
Speed
Unknown
Apparent Right ascension
Unknown
Apparent Declination
Unknown
Sunlit
N/A
Visualization observer readout
Local Sidereal Time
21:31:07
Azimuth
Unknown
Elevation
Unknown
Doppler factor
Unknown
Orbital elements
Apogee altitude
155.937 km
Perigee altitude
151.513 km
Semi-major axis
6,531.862 km
Eccentricity
0.00034
Inclination
53.2016°
RAAN
89.4782°
Arg. of periapsis
288.009°
True anomaly
213.00725°
Mean anomaly
213.0284°
Eccentric anomaly
213.01783°
Mean motion
4.11138 °/min
Orbital period
87.56 mins
BSTAR
0.00035118
Loading maneuver chart data...
Computing Atmospheric mass density...
Loading historical data...
Loading historical data...
Loading historical data...
Loading historical data...
Loading historical data...
Loading historical data...
Loading historical data...

Documentation

Showing up to 5 results
|